Regional Weather Roundup
Issued by NWS

Home | Current Version | Previous Version | Text Only | Print | Product List | Glossary Off
Versions: 1 2 3 4 5 6 7 8 9 10 11 12 13 14 15 16 17 18 19 20 21 22 23 24 25 26 27 28 29 30 31 32 33 34 35 36 37 38 39 40 41 42 43 44 45 46 47 48 49 50

000
ASUS43 KLSX 261259
RWRMO

WEATHER SUMMARY FOR MISSOURI
NATIONAL WEATHER SERVICE SPRINGFIELD MO
800 AM CDT SAT JUL 26 2014

NOTE: "FAIR" INDICATES FEW OR NO CLOUDS BELOW 12,000 FEET WITH NO
       SIGNIFICANT WEATHER AND/OR OBSTRUCTIONS TO VISIBILITY.
       CURRENT SKY AND/OR WEATHER CONDITIONS ARE NOT AVAILABLE FOR
       CHILLICOTHE AND FARMINGTON.

MOZ001>031-035>038-043-044-053-054-261400-
...NORTHERN AND WESTERN MISSOURI...

CITY           SKY/WX    TMP DP  RH WIND       PRES   REMARKS
KANSAS CTY INT CLOUDY    78  71  79 S8        29.83R
KANSAS C DTWN  CLOUDY    83  69  62 SW12      29.82R
LEE`S SUMMIT   PTSUNNY   79  71  76 S14G21    29.84R
ST JOSEPH      CLOUDY    78  75  90 CALM      29.81R
CHILLICOTHE      N/A     80  73  79 S10       29.82F
KIRKSVILLE     PTSUNNY   77  72  84 SW7       29.83R HAZE

$$
MOZ066>068-077>081-088>096-101>105-261400-
...SOUTHWEST MISSOURI...

CITY           SKY/WX    TMP DP  RH WIND       PRES   REMARKS
SPRINGFIELD    MOSUNNY   77  71  82 S10       29.96R
JOPLIN         MOSUNNY   78  71  79 S16       29.94R

$$
MOZ032>034-039>042-045>050-055>058-069>072-261400-
...CENTRAL MISSOURI...

CITY           SKY/WX    TMP DP  RH WIND       PRES   REMARKS
COLUMBIA       MOSUNNY   76  73  91 S7        29.89R
JEFFERSON CITY MOSUNNY   79  72  79 S6        29.88R
ROLLA          PTSUNNY   77  70  79 SW15      29.91S
SEDALIA        MOSUNNY   80  71  74 SW16G24   29.86S HAZE
OSAGE BEACH    MOSUNNY   81  70  69 SW12      29.91S

$$
MOZ051-052-059>065-261400-
...EAST CENTRAL MISSOURI...

CITY           SKY/WX    TMP DP  RH WIND       PRES   REMARKS
ST LOUIS INTL  MOSUNNY   76  69  79 S5        29.90R
SPIRIT OF STL  MOSUNNY   77  70  79 CALM      29.87S
ST CHARLES     SUNNY     74  69  85 SE3       29.88R

$$
MOZ072>076-082>087-097>100-106>115-261400-
...SOUTH CENTRAL AND SOUTHEAST MISSOURI...

CITY           SKY/WX    TMP DP  RH WIND       PRES   REMARKS
CAPE GIRARDEAU SUNNY     73  68  84 S6        29.97R
FARMINGTON     MOSUNNY   73  70  88 S8        29.96S
POPLAR BLUFF   MOSUNNY   72  68  87 SW3       29.96R
WEST PLAINS    MOSUNNY   74  71  91 SW8       30.00R FOG

$$



USA.gov is the U.S. government's official web portal to all federal, state and local government web resources and services.